Winner, SD

7:03 AM CST on November 18, 2017 (GMT -0600)
Winner

Weather History for KICR - August, 2013

Change the Weather History Date:

Thursday, August 1, 2013

  Actual Average Record
Temperature  
Mean Temperature 74 °F 76 °F  
Max Temperature 84 °F 89 °F 103 °F (2011)
Min Temperature 63 °F 64 °F 62 °F (2014)
Degree Days  
Heating Degree Days 0 0  
Month to date heating degree days 0 0  
Since 1 June heating degree days 60 59  
Since 1 July heating degree days 7 5  
Cooling Degree Days 9 12  
Month to date cooling degree days 9 12  
Year to date cooling degree days 468 518  
Since 1 June cooling degree days 429 488  
Growing Degree Days 22 (Base 50)    
Moisture  
Dew Point 66 °F    
Average Humidity 76    
Maximum Humidity 93    
Minimum Humidity 58    
Precipitation  
Precipitation 0.10 in 0.08 in 0.16 in (2014)
Month to date precipitation 0.10 0.08  
Year to date precipitation 13.60 14.76  
Sea Level Pressure  
Sea Level Pressure 29.97 in    
Wind  
Wind Speed 7 mph (SSE)    
Max Wind Speed 16 mph    
Max Gust Speed 21 mph    
Visibility 10 miles    
Events Rain , Thunderstorm    
T = Trace of Precipitation, MM = Missing Value Source: NWS Daily Summary

Daily Weather History Graph

Daily Weather History Graph

Search for Another Location

Airport or City:

Trip Planner

Search our weather history database for the weather conditions in past years. The results will help you decide how hot, cold, wet, or windy it might be!

Date:

Astronomy

Aug. 01, 2013 Rise Set
Actual Time 6:29 AM CDT 9:01 PM CDT
Civil Twilight 5:57 AM CDT 9:33 PM CDT
Nautical Twilight 5:16 AM CDT 10:13 PM CDT
Astronomical Twilight 4:30 AM CDT 10:59 PM CDT
Moon 2:06 AM CDT (8/1) 5:12 PM CDT (8/1)
Length of Visible Light 15h 36m
Length of Day
14h 31m
Waning Crescent, 23% of the Moon is Illuminated
Aug 1
Waning Crescent
Aug 6
New
Aug 14
First Quarter
Aug 20
Full
Aug 28
Last Quarter

Hourly Weather History & Observations

Time (CDT) Temp. Heat Index Dew Point Humidity Pressure Visibility Wind Dir Wind Speed Gust Speed Precip Events Conditions
12:53 AM 66.0 °F - 59.0 °F 78% 30.07 in 10.0 mi SSE 3.5 mph - N/A   Clear
1:53 AM 68.0 °F - 60.1 °F 76% 30.07 in 10.0 mi SSW 9.2 mph - N/A   Clear
2:53 AM 68.0 °F - 60.1 °F 76% 30.06 in 10.0 mi SSW 9.2 mph - N/A   Clear
3:53 AM 68.0 °F - 60.1 °F 76% 30.05 in 10.0 mi SW 8.1 mph - N/A   Partly Cloudy
4:53 AM 63.0 °F - 59.0 °F 87% 30.04 in 10.0 mi East 3.5 mph - N/A   Clear
5:53 AM 66.9 °F - 61.0 °F 81% 30.02 in 10.0 mi South 4.6 mph - N/A   Mostly Cloudy
6:53 AM 66.9 °F - 61.0 °F 81% 30.01 in 10.0 mi Calm Calm - N/A   Clear
7:53 AM 70.0 °F - 62.1 °F 76% 30.00 in 10.0 mi SSW 12.7 mph - N/A   Clear
8:53 AM 75.9 °F - 64.0 °F 67% 30.01 in 10.0 mi SSW 15.0 mph 20.7 mph N/A   Clear
9:53 AM 78.1 °F - 64.9 °F 64% 30.01 in 10.0 mi Variable 3.5 mph - N/A   Scattered Clouds
10:53 AM 81.0 °F 83.0 °F 66.0 °F 60% 29.99 in 10.0 mi SE 8.1 mph - N/A   Clear
11:53 AM 82.9 °F 85.0 °F 66.0 °F 56% 29.98 in 10.0 mi SSW 6.9 mph - N/A   Partly Cloudy
12:12 PM 80.6 °F 82.7 °F 66.2 °F 61% 30.03 in 10.0 mi SSW 5.8 mph - N/A Thunderstorm Scattered Clouds
12:26 PM 78.8 °F - 66.2 °F 65% 30.03 in 10.0 mi SW 6.9 mph - 0.00 in Rain , Thunderstorm Light Rain
12:53 PM 75.0 °F - 69.1 °F 82% 29.99 in 4.0 mi South 3.5 mph - 0.02 in Rain , Thunderstorm Heavy Thunderstorms and Rain
1:36 PM 77.0 °F - 69.8 °F 78% 29.99 in 10.0 mi SE 4.6 mph - 0.02 in   Overcast
1:53 PM 79.0 °F - 71.1 °F 77% 29.95 in 10.0 mi SSE 5.8 mph - 0.02 in   Overcast
2:49 PM 78.8 °F - 71.6 °F 78% 29.98 in 10.0 mi SSE 5.8 mph - 0.05 in Rain , Thunderstorm Light Rain
2:53 PM 78.1 °F - 71.1 °F 79% 29.94 in 10.0 mi SSE 8.1 mph - 0.05 in Thunderstorm Scattered Clouds
3:04 PM 78.8 °F - 71.6 °F 78% 29.96 in 10.0 mi South 9.2 mph - N/A   Partly Cloudy
3:53 PM 80.1 °F 82.7 °F 68.0 °F 67% 29.91 in 5.0 mi Calm Calm - 0.01 in Rain Light Rain
4:53 PM 79.0 °F - 70.0 °F 74% 29.93 in 10.0 mi NNE 4.6 mph - 0.00 in   Overcast
5:53 PM 82.0 °F 85.5 °F 69.1 °F 65% 29.87 in 10.0 mi SE 9.2 mph - 0.00 in   Partly Cloudy
6:53 PM 77.0 °F - 69.1 °F 76% 29.86 in 10.0 mi SE 13.8 mph - N/A   Clear
7:53 PM 75.9 °F - 66.9 °F 74% 29.88 in 10.0 mi SSE 9.2 mph - N/A   Clear
8:53 PM 72.0 °F - 64.9 °F 78% 29.86 in 10.0 mi SSE 4.6 mph - N/A   Clear
9:53 PM 68.0 °F - 64.9 °F 90% 29.89 in 10.0 mi ENE 3.5 mph - N/A   Clear
10:53 PM 66.9 °F - 64.9 °F 93% 29.86 in 10.0 mi ENE 8.1 mph - N/A   Partly Cloudy
11:53 PM 66.9 °F - 64.9 °F 93% 29.85 in 10.0 mi East 8.1 mph - N/A   Clear